Home > Weather > Flekkefjord > Past weeks

Flag for Norway Past Weather in Flekkefjord, Norway — Yesterday and Last 2 Weeks

Now
53 °F

Cool.


Feels Like: 53 °F
Forecast: 55 / 59 °F
Wind: 3 mph from Northeast

Location: Lista Fyr

Current Time: Jun 29, 2016 at 4:08:38 AM

Latest Report: Jun 29, 2016 at 3:00 AM


Visibility: N/A

Pressure: 29.83 "Hg

Humidity: 100%

Dew Point: 53 °F

Location of FlekkefjordLocation

Past Weather in Flekkefjord — Graph

°F

Flekkefjord Temperature Yesterday

Maximum temperature yesterday: 64 °F (at 4:00 PM)
Minimum temperature yesterday: 55 °F (at 7:00 AM)
Average temperature yesterday: 58 °F

High & Low Weather Summary for the Past Weeks

 TemperatureHumidityPressure
High67 °F (Jun 14, 5:00 PM)100% (Jun 15, 10:00 PM)30.16 "Hg (Jun 15, 10:00 PM)
Low45 °F (Jun 20, 3:00 AM)45% (Jun 14, 3:00 PM)29.50 "Hg (Jun 15, 4:00 AM)
Average57 °F91%29.82 "Hg
* Reported Jun 14 2:00 AM — Jun 29 2:00 AM, Flekkefjord, Weather by CustomWeather, © 2016

Note: Actual official high and low records may vary slightly from our data, if they occured in-between our weather recording intervals... More about our weather records

Advertising

Flekkefjord Weather History for the Previous 24 Hours

Scroll right to see more
 ConditionsComfort  
Time TempWeatherWind HumidityBarometerVisibility
2:00 AM
Wed, Jun 29
54 °FCool.5 mph99%29.85 "HgN/A
1:00 AM51 °FCool.3 mphN/A29.87 "HgN/A
12:00 AM56 °FCool.5 mph89%29.88 "HgN/A
11:00 PM
Tue, Jun 28
56 °FCool.5 mph90%29.88 "HgN/A
10:00 PM58 °FCool.3 mph89%29.89 "HgN/A
9:00 PM60 °FCool.3 mph85%29.89 "HgN/A
8:00 PM60 °FPassing clouds.3 mph73%29.90 "Hg12 mi
6:00 PM61 °FCool.6 mph72%29.91 "HgN/A
5:00 PM61 °FCool.3 mph73%29.92 "HgN/A
4:00 PM64 °FMild.3 mph68%29.93 "HgN/A
3:00 PM59 °FCool.6 mph97%29.93 "HgN/A
2:00 PM60 °FPartly sunny.5 mph89%29.93 "Hg16 mi
1:00 PM62 °FCool.5 mph82%29.93 "HgN/A
12:00 PM61 °FCool.3 mph86%29.93 "HgN/A
11:00 AM59 °FScattered clouds.2 mph82%29.93 "Hg12 mi
10:00 AM60 °FCool.3 mph86%29.93 "HgN/A
9:00 AM59 °FCool.1 mph79%29.92 "HgN/A
8:00 AM58 °FCool.1 mph79%29.91 "HgN/A
7:00 AM55 °FCool.5 mph89%29.91 "HgN/A
6:00 AM55 °FCool.3 mph93%29.91 "HgN/A
5:00 AM56 °FCool.7 mph83%29.90 "HgN/A
4:00 AM56 °FCool.9 mph80%29.89 "HgN/A
Weather by CustomWeather, © 2016

See weather overviewHow to use our weather pages